This is the latest recevied weather packets stored in our database for station/object KF7SOJ. If no packets are shown the sender has not sent any weather packets the latest 10 day(s).
| Time | Temp. | Humidity | Pressure | Rain* | Wind** | Luminosity | Snow |
|---|---|---|---|---|---|---|---|
| 1787821693 | 20.56° C | 43% | 934.7 hPa | 0 mm | - | 0 W/m² | - |
| 1787821388 | 20.56° C | 43% | 934.9 hPa | 0 mm | - | 0 W/m² | - |
| 1787821087 | 20.56° C | 43% | 934.9 hPa | 0 mm | - | 0 W/m² | - |
| 1787820787 | 20.56° C | 43% | 935 hPa | 0 mm | - | 0 W/m² | - |
| 1787820482 | 20° C | 45% | 934.9 hPa | 0 mm | - | 0 W/m² | - |
| 1787820178 | 20° C | 46% | 935 hPa | 0 mm | - | 0 W/m² | - |
| 1787819874 | 20° C | 46% | 934.7 hPa | 0 mm | - | 0 W/m² | - |
| 1787819574 | 20° C | 45% | 934.8 hPa | 0 mm | - | 0 W/m² | - |
| 1787819273 | 20° C | 44% | 934.8 hPa | 0 mm | - | 0 W/m² | - |
| 1787818969 | 20.56° C | 43% | 934.8 hPa | 0 mm | - | 0 W/m² | - |
| 1787818666 | 22.22° C | 40% | 934.7 hPa | 0 mm | - | 0 W/m² | - |
| 1787818363 | 22.78° C | 39% | 934.3 hPa | 0 mm | - | 0 W/m² | - |
| 1787818059 | 22.78° C | 39% | 934.4 hPa | 0 mm | - | 0 W/m² | - |
| 1787817756 | 22.78° C | 38% | 934.4 hPa | 0 mm | - | 0 W/m² | - |
| 1787817455 | 22.22° C | 39% | 934.6 hPa | 0 mm | - | 0 W/m² | - |
| 1787817150 | 21.67° C | 40% | 934.6 hPa | 0 mm | - | 0 W/m² | - |
| 1787816849 | 21.67° C | 42% | 934.4 hPa | 0 mm | - | 0 W/m² | - |
| 1787816544 | 21.67° C | 41% | 934.4 hPa | 0 mm | - | 0 W/m² | - |
| 1787816240 | 22.22° C | 40% | 934.1 hPa | 0 mm | - | 0 W/m² | - |
| 1787815935 | 22.22° C | 39% | 934.4 hPa | 0 mm | - | 0 W/m² | - |
| 1787815630 | 22.22° C | 39% | 934.4 hPa | 0 mm | - | 0 W/m² | - |
| 1787815326 | 23.33° C | 38% | 934.4 hPa | 0 mm | - | 0 W/m² | - |
| 1787815022 | 23.89° C | 37% | 934.3 hPa | 0 mm | - | 0 W/m² | - |
| 1787814721 | 23.33° C | 38% | 934.6 hPa | 0 mm | - | 0 W/m² | - |
| 1787814416 | 23.33° C | 38% | 934.4 hPa | 0 mm | - | 0 W/m² | - |
* Rain latest hour (hover to see other rain measurements)
** Current wind speed in m/s (hover to see current wind gust speed)